Bangor, ME

9:48 AM EST on December 04, 2016 (GMT -0500)
Bangor International

Weather History for KBGR - September, 2013

Change the Weather History Date:

Saturday, September 21, 2013

  Actual Average Record
Temperature  
Mean Temperature 59 °F 57 °F  
Max Temperature 69 °F 68 °F 90 °F (1965)
Min Temperature 49 °F 46 °F 27 °F (1929)
Degree Days  
Heating Degree Days 6 9  
Month to date heating degree days 117 115  
Since 1 July heating degree days 149 178  
Cooling Degree Days 0 0  
Month to date cooling degree days 33 21  
Year to date cooling degree days 355 315  
Growing Degree Days 8 (Base 50)    
Moisture  
Dew Point 55 °F    
Average Humidity 82    
Maximum Humidity 100    
Minimum Humidity 63    
Precipitation  
Precipitation 0.00 in 0.13 in 1.39 in (1938)
Month to date precipitation 6.70 2.53  
Year to date precipitation 31.88 28.78  
Snow  
Snow 0.00 in 0.00 in 0.00 in (2002)
Month to date snowfall 0.0 0.0  
Since 1 July snowfall 0.0 0.0  
Since 1 September snowfall 0.0 0.0  
Snow Depth 0.00 in    
Sea Level Pressure  
Sea Level Pressure 29.92 in    
Wind  
Wind Speed 8 mph (South)    
Max Wind Speed 24 mph    
Max Gust Speed 31 mph    
Visibility 8 miles    
Events      
T = Trace of Precipitation, MM = Missing Value Source: NWS Daily Summary

Daily Weather History Graph

Daily Weather History Graph

Search for Another Location

Airport or City:

Trip Planner

Search our weather history database for the weather conditions in past years. The results will help you decide how hot, cold, wet, or windy it might be!

Date:

Astronomy

Sep. 21, 2013 Rise Set
Actual Time 6:21 AM EDT 6:34 PM EDT
Civil Twilight 5:52 AM EDT 7:03 PM EDT
Nautical Twilight 5:17 AM EDT 7:37 PM EDT
Astronomical Twilight 4:42 AM EDT 8:12 PM EDT
Moon 7:34 PM EDT (9/21) 8:43 AM EDT (9/21)
Length of Visible Light 13h 11m
Length of Day
12h 12m
Waning Gibbous, 94% of the Moon is Illuminated
Sep 21
Waning Gibbous
Sep 26
Last Quarter
Oct 4
New
Oct 11
First Quarter
Oct 18
Full

Hourly Weather History & Observations

Time (EDT) Temp. Dew Point Humidity Pressure Visibility Wind Dir Wind Speed Gust Speed Precip Events Conditions
12:53 AM 52.0 °F 48.9 °F 89% 30.04 in 10.0 mi Calm Calm - N/A   Clear
1:53 AM 48.9 °F 46.9 °F 93% 30.03 in 10.0 mi Calm Calm - N/A   Clear
2:11 AM 48.2 °F 46.4 °F 93% 30.03 in 10.0 mi Calm Calm - N/A   Scattered Clouds
2:36 AM 53.6 °F 51.8 °F 94% 30.03 in 8.0 mi SSE 3.5 mph - N/A   Overcast
2:53 AM 54.0 °F 53.1 °F 97% 30.02 in 4.0 mi SSE 9.2 mph - N/A   Overcast
3:02 AM 53.6 °F 53.6 °F 100% 30.02 in 1.8 mi SSE 10.4 mph - N/A   Overcast
3:23 AM 53.6 °F 53.6 °F 100% 30.02 in 0.8 mi SSE 5.8 mph - N/A   Overcast
3:53 AM 55.0 °F 54.0 °F 96% 30.02 in 0.8 mi SSE 4.6 mph - N/A   Overcast
4:53 AM 55.9 °F 54.0 °F 93% 30.01 in 0.8 mi SSE 8.1 mph - N/A   Overcast
5:19 AM 55.4 °F 53.6 °F 94% 30.01 in 3.0 mi SSE 5.8 mph - N/A   Overcast
5:53 AM 55.9 °F 54.0 °F 93% 30.00 in 4.0 mi South 5.8 mph - N/A   Overcast
6:53 AM 57.0 °F 54.0 °F 89% 29.99 in 5.0 mi South 11.5 mph 17.3 mph N/A   Overcast
7:53 AM 57.9 °F 55.0 °F 90% 29.98 in 5.0 mi South 10.4 mph - N/A   Overcast
8:53 AM 59.0 °F 55.9 °F 90% 29.98 in 5.0 mi South 11.5 mph - N/A   Overcast
9:46 AM 62.6 °F 55.4 °F 77% 29.99 in 7.0 mi South 11.5 mph 23.0 mph N/A   Mostly Cloudy
9:53 AM 62.1 °F 55.0 °F 78% 29.99 in 7.0 mi SSE 15.0 mph - N/A   Mostly Cloudy
10:53 AM 62.1 °F 55.0 °F 78% 29.96 in 10.0 mi South 13.8 mph - N/A   Mostly Cloudy
11:53 AM 66.0 °F 55.0 °F 68% 29.94 in 10.0 mi SSE 10.4 mph - N/A   Scattered Clouds
12:53 PM 66.9 °F 55.9 °F 68% 29.91 in 10.0 mi SSE 13.8 mph - N/A   Scattered Clouds
1:53 PM 68.0 °F 55.9 °F 65% 29.89 in 10.0 mi South 19.6 mph 29.9 mph N/A   Scattered Clouds
2:53 PM 64.9 °F 55.9 °F 73% 29.87 in 10.0 mi South 21.9 mph 31.1 mph N/A   Mostly Cloudy
3:26 PM 64.4 °F 55.4 °F 73% 29.87 in 10.0 mi South 18.4 mph 27.6 mph N/A   Mostly Cloudy
3:53 PM 63.0 °F 55.9 °F 78% 29.87 in 10.0 mi SSE 17.3 mph 24.2 mph N/A   Overcast
4:04 PM 62.6 °F 55.4 °F 77% 29.88 in 10.0 mi South 17.3 mph 24.2 mph N/A   Overcast
4:49 PM 62.6 °F 57.2 °F 82% 29.86 in 10.0 mi South 16.1 mph 23.0 mph N/A   Overcast
4:53 PM 62.1 °F 57.0 °F 84% 29.86 in 10.0 mi South 12.7 mph - N/A   Overcast
5:53 PM 61.0 °F 57.0 °F 87% 29.85 in 10.0 mi South 13.8 mph 20.7 mph N/A   Overcast
6:53 PM 61.0 °F 57.0 °F 87% 29.85 in 10.0 mi South 13.8 mph - N/A   Overcast
7:53 PM 62.1 °F 57.0 °F 84% 29.85 in 10.0 mi South 13.8 mph 20.7 mph N/A   Overcast
8:53 PM 61.0 °F 57.0 °F 87% 29.83 in 10.0 mi South 13.8 mph 20.7 mph N/A   Overcast
8:56 PM 62.6 °F 57.2 °F 82% 29.83 in 10.0 mi South 11.5 mph 20.7 mph N/A   Overcast
9:21 PM 62.6 °F 57.2 °F 82% 29.83 in 10.0 mi South 12.7 mph 19.6 mph N/A   Overcast
9:53 PM 62.1 °F 57.9 °F 86% 29.82 in 10.0 mi South 15.0 mph - N/A   Overcast
10:53 PM 62.1 °F 57.9 °F 86% 29.81 in 10.0 mi South 13.8 mph - N/A   Overcast
11:06 PM 62.6 °F 57.2 °F 82% 29.81 in 10.0 mi South 12.7 mph 20.7 mph N/A   Mostly Cloudy
11:24 PM 62.6 °F 57.2 °F 82% 29.79 in 10.0 mi South 16.1 mph 21.9 mph N/A   Mostly Cloudy
11:53 PM 63.0 °F 57.9 °F 84% 29.78 in 10.0 mi South 16.1 mph 24.2 mph N/A   Scattered Clouds